When you browse on this site, cookies collect data to enhance your experience and personalize the content and advertising you see.
Visit our Privacy Policy to learn more. By continuing to use the site, you agree to this use of cookies and data.
  • In Deutschland
  • Länderverzeichnis
  • Für 7 Tage
  • Wassertemperatur
  • Satellitenkarten
  • Wetterkarte
  • Widgets
  • user-avatar
    Anmelden

    Stündliche Wetter Yelsk

    Heute, 23 Juli, Dienstag

    Zeit Temperatur Niederschläge Wind Luftdruck Luftfeuchtigkeit
    00:00 +16°C° 0 mm 3 m/S 747 mmHg 92%
    01:00 +16°C° 0 mm 3 m/S 746 mmHg 93%
    02:00 +16°C° 0 mm 3 m/S 746 mmHg 94%
    03:00 +14°C° 0 mm 3 m/S 746 mmHg 95%
    04:00 +14°C° 0 mm 3 m/S 746 mmHg 96%
    05:00 +13°C° 0 mm 3 m/S 746 mmHg 97%
    06:00 +14°C° 0 mm 3 m/S 746 mmHg 92%
    07:00 +16°C° 0 mm 3 m/S 746 mmHg 86%
    08:00 +17°C° 0 mm 4 m/S 746 mmHg 81%
    09:00 +19°C° 0 mm 4 m/S 746 mmHg 75%
    10:00 +20°C° 0 mm 4 m/S 746 mmHg 70%
    11:00 +21°C° 0 mm 4 m/S 746 mmHg 64%
    12:00 +21°C° 0.2 mm 4 m/S 745 mmHg 65%
    13:00 +21°C° 0.2 mm 5 m/S 745 mmHg 66%
    14:00 +21°C° 0.2 mm 5 m/S 745 mmHg 67%
    15:00 +20°C° 0.3 mm 4 m/S 745 mmHg 73%
    16:00 +19°C° 0.3 mm 4 m/S 745 mmHg 78%
    17:00 +18°C° 0.3 mm 4 m/S 745 mmHg 84%
    18:00 +17°C° 0 mm 4 m/S 745 mmHg 87%
    19:00 +17°C° 0 mm 3 m/S 744 mmHg 89%
    20:00 +16°C° 0 mm 2 m/S 744 mmHg 91%
    21:00 +16°C° 0.1 mm 3 m/S 744 mmHg 92%
    22:00 +16°C° 0.1 mm 3 m/S 744 mmHg 93%
    23:00 +16°C° 0.1 mm 3 m/S 744 mmHg 93%

    Morgen, 24 Juli, Mittwoch

    Zeit Temperatur Niederschläge Wind Luftdruck Luftfeuchtigkeit
    00:00 +16°C° 0 mm 3 m/S 744 mmHg 94%
    01:00 +15°C° 0 mm 4 m/S 744 mmHg 94%
    02:00 +15°C° 0 mm 4 m/S 743 mmHg 94%
    03:00 +15°C° 0 mm 4 m/S 743 mmHg 94%
    04:00 +14°C° 0 mm 4 m/S 743 mmHg 95%
    05:00 +14°C° 0 mm 4 m/S 743 mmHg 95%
    06:00 +15°C° 0 mm 4 m/S 743 mmHg 91%
    07:00 +17°C° 0 mm 4 m/S 744 mmHg 86%
    08:00 +17°C° 0 mm 5 m/S 744 mmHg 82%
    09:00 +19°C° 0.1 mm 5 m/S 744 mmHg 78%
    10:00 +20°C° 0.1 mm 4 m/S 744 mmHg 75%
    11:00 +21°C° 0.1 mm 4 m/S 744 mmHg 71%
    12:00 +22°C° 0.7 mm 5 m/S 744 mmHg 72%
    13:00 +22°C° 0.7 mm 5 m/S 744 mmHg 72%
    14:00 +22°C° 0.7 mm 5 m/S 744 mmHg 73%
    15:00 +22°C° 0.5 mm 5 m/S 744 mmHg 73%
    16:00 +22°C° 0.5 mm 4 m/S 744 mmHg 74%
    17:00 +22°C° 0.5 mm 4 m/S 744 mmHg 74%
    18:00 +21°C° 0.2 mm 4 m/S 744 mmHg 79%
    19:00 +19°C° 0.2 mm 3 m/S 745 mmHg 83%
    20:00 +18°C° 0.2 mm 2 m/S 745 mmHg 88%
    21:00 +17°C° 0 mm 2 m/S 745 mmHg 89%
    22:00 +16°C° 0 mm 2 m/S 745 mmHg 90%
    23:00 +16°C° 0 mm 2 m/S 745 mmHg 91%

    übermorgen, 25 Juli, Donnerstag

    Zeit Temperatur Niederschläge Wind Luftdruck Luftfeuchtigkeit
    00:00 +15°C° 0 mm 2 m/S 746 mmHg 92%
    01:00 +14°C° 0 mm 3 m/S 746 mmHg 92%
    02:00 +13°C° 0 mm 3 m/S 746 mmHg 93%
    03:00 +13°C° 0 mm 3 m/S 746 mmHg 93%
    04:00 +13°C° 0 mm 3 m/S 746 mmHg 93%
    05:00 +13°C° 0 mm 3 m/S 746 mmHg 93%
    06:00 +16°C° 0 mm 3 m/S 746 mmHg 85%
    07:00 +17°C° 0 mm 3 m/S 746 mmHg 78%
    08:00 +19°C° 0 mm 3 m/S 746 mmHg 71%
    09:00 +21°C° 0.2 mm 4 m/S 746 mmHg 66%
    10:00 +22°C° 0.2 mm 4 m/S 746 mmHg 62%
    11:00 +23°C° 0.2 mm 5 m/S 746 mmHg 58%
    12:00 +23°C° 0.9 mm 5 m/S 746 mmHg 61%
    13:00 +23°C° 0.9 mm 5 m/S 745 mmHg 64%
    14:00 +23°C° 0.9 mm 4 m/S 745 mmHg 68%
    15:00 +23°C° 0.4 mm 5 m/S 745 mmHg 68%
    16:00 +23°C° 0.4 mm 5 m/S 745 mmHg 69%
    17:00 +22°C° 0.4 mm 5 m/S 744 mmHg 69%
    18:00 +21°C° 0.2 mm 4 m/S 744 mmHg 75%
    19:00 +20°C° 0.2 mm 4 m/S 744 mmHg 80%
    20:00 +18°C° 0.2 mm 3 m/S 744 mmHg 86%
    21:00 +18°C° 0 mm 3 m/S 744 mmHg 89%
    22:00 +17°C° 0 mm 3 m/S 744 mmHg 92%
    23:00 +16°C° 0 mm 3 m/S 744 mmHg 95%

    26 Juli, Freitag

    Zeit Temperatur Niederschläge Wind Luftdruck Luftfeuchtigkeit
    00:00 +15°C° 0 mm 2 m/S 744 mmHg 96%
    01:00 +15°C° 0 mm 2 m/S 744 mmHg 96%
    02:00 +14°C° 0 mm 2 m/S 744 mmHg 97%
    03:00 +14°C° 0 mm 2 m/S 744 mmHg 97%
    04:00 +14°C° 0 mm 2 m/S 743 mmHg 97%
    05:00 +14°C° 0 mm 2 m/S 743 mmHg 97%
    06:00 +15°C° 0 mm 1 m/S 743 mmHg 92%
    07:00 +18°C° 0 mm 1 m/S 743 mmHg 86%
    08:00 +19°C° 0 mm 1 m/S 743 mmHg 81%
    09:00 +20°C° 0.3 mm 1 m/S 743 mmHg 80%
    10:00 +21°C° 0.3 mm 1 m/S 743 mmHg 78%
    11:00 +20°C° 0.3 mm 2 m/S 743 mmHg 77%
    12:00 +21°C° 0.9 mm 2 m/S 743 mmHg 75%
    13:00 +21°C° 0.9 mm 2 m/S 743 mmHg 73%
    14:00 +23°C° 0.9 mm 2 m/S 743 mmHg 70%
    15:00 +23°C° 1.1 mm 2 m/S 743 mmHg 73%
    16:00 +23°C° 1.1 mm 2 m/S 743 mmHg 75%
    17:00 +23°C° 1.1 mm 2 m/S 743 mmHg 77%
    18:00 +20°C° 0.2 mm 2 m/S 743 mmHg 82%
    19:00 +19°C° 0.2 mm 2 m/S 743 mmHg 87%
    20:00 +18°C° 0.2 mm 2 m/S 743 mmHg 92%
    21:00 +17°C° 0 mm 2 m/S 743 mmHg 93%
    22:00 +17°C° 0 mm 2 m/S 743 mmHg 94%
    23:00 +16°C° 0 mm 2 m/S 743 mmHg 95%

    27 Juli, Samstag

    Zeit Temperatur Niederschläge Wind Luftdruck Luftfeuchtigkeit
    00:00 +16°C° 0 mm 2 m/S 743 mmHg 95%
    01:00 +16°C° 0 mm 2 m/S 743 mmHg 95%
    02:00 +16°C° 0 mm 2 m/S 743 mmHg 95%
    03:00 +15°C° 0 mm 2 m/S 743 mmHg 96%
    04:00 +15°C° 0 mm 2 m/S 744 mmHg 96%
    05:00 +15°C° 0 mm 2 m/S 744 mmHg 97%
    06:00 +17°C° 0 mm 2 m/S 744 mmHg 94%
    07:00 +18°C° 0 mm 3 m/S 744 mmHg 92%
    08:00 +19°C° 0 mm 3 m/S 744 mmHg 89%
    09:00 +20°C° 0.1 mm 4 m/S 744 mmHg 83%
    10:00 +21°C° 0.1 mm 4 m/S 744 mmHg 78%
    11:00 +22°C° 0.1 mm 5 m/S 744 mmHg 72%
    12:00 +23°C° 0 mm 4 m/S 744 mmHg 69%
    13:00 +25°C° 0 mm 4 m/S 744 mmHg 66%
    14:00 +25°C° 0 mm 4 m/S 744 mmHg 62%
    15:00 +25°C° 0 mm 4 m/S 744 mmHg 65%
    16:00 +25°C° 0 mm 3 m/S 743 mmHg 67%
    17:00 +24°C° 0 mm 3 m/S 743 mmHg 70%
    18:00 +23°C° 0.3 mm 2 m/S 743 mmHg 76%
    19:00 +21°C° 0.3 mm 2 m/S 743 mmHg 83%
    20:00 +20°C° 0.3 mm 1 m/S 743 mmHg 90%
    21:00 +20°C° 0 mm 1 m/S 743 mmHg 92%
    22:00 +20°C° 0 mm 1 m/S 743 mmHg 93%
    23:00 +19°C° 0 mm 1 m/S 743 mmHg 95%

    28 Juli, Sonntag

    Zeit Temperatur Niederschläge Wind Luftdruck Luftfeuchtigkeit
    00:00 +19°C° 0 mm 1 m/S 743 mmHg 95%
    01:00 +18°C° 0 mm 2 m/S 743 mmHg 96%
    02:00 +18°C° 0 mm 2 m/S 743 mmHg 96%
    03:00 +17°C° 0 mm 2 m/S 743 mmHg 97%
    04:00 +17°C° 0 mm 2 m/S 743 mmHg 97%
    05:00 +17°C° 0 mm 2 m/S 743 mmHg 97%
    06:00 +19°C° 0 mm 2 m/S 743 mmHg 92%
    07:00 +20°C° 0 mm 2 m/S 743 mmHg 86%
    08:00 +23°C° 0 mm 2 m/S 744 mmHg 81%
    09:00 +25°C° 0 mm 2 m/S 744 mmHg 74%
    10:00 +26°C° 0 mm 3 m/S 744 mmHg 67%
    11:00 +28°C° 0 mm 3 m/S 744 mmHg 60%
    12:00 +28°C° 0.1 mm 3 m/S 743 mmHg 57%
    13:00 +29°C° 0.1 mm 3 m/S 743 mmHg 55%
    14:00 +29°C° 0.1 mm 3 m/S 743 mmHg 52%
    15:00 +29°C° 0.1 mm 3 m/S 743 mmHg 53%
    16:00 +29°C° 0.1 mm 2 m/S 743 mmHg 54%
    17:00 +29°C° 0.1 mm 2 m/S 742 mmHg 55%
    18:00 +27°C° 0 mm 2 m/S 742 mmHg 62%
    19:00 +25°C° 0 mm 1 m/S 742 mmHg 69%
    20:00 +23°C° 0 mm 1 m/S 742 mmHg 77%
    21:00 +22°C° 0 mm 1 m/S 743 mmHg 80%
    22:00 +22°C° 0 mm 1 m/S 743 mmHg 82%
    23:00 +21°C° 0 mm 1 m/S 743 mmHg 85%
    Mehr zeigen